User: anonymous   Login
Location: Unspecified
(0.0000°N, 0.0000°E)
Time: 13:34:26
(UTC+00:00)
Language:

AMOS 1 - Orbit

View from above orbital plane
View from above orbital plane
View from above satellite
View from above satellite

Ground track
Ground track

The orbit data is extracted from the following two-line orbital elements,

1 23865U 96030B   14302.61222480 -.00000062  00000-0  00000+0 0  1807
2 23865 005.3242 061.1413 0012337 100.4456 189.5259 00.97116459 67312
Epoch (UTC): 29 October 2014 14:41:36
Eccentricity: 0.0012337
inclination: 5.3242°
perigee height: 36641 km
apogee height: 36748 km
right ascension of ascending node: 61.1413°
argument of perigee: 100.4456°
revolutions per day: 0.97116459
mean anomaly at epoch: 189.5259°
orbit number at epoch: 6731

The dashed part of the orbit path shows where the satellite is in the earth's shadow,  

DLR